Zurück zum Katalog

OPS 5960

AktivNavigationMEO
NORAD 4630·PAYLOAD·🇺🇸 United States

Gestartet Nov 6, 1970 von Cape Canaveral Space Force Station

Loading…

Nächste Überflüge (nächste 24 Stunden)

TLE

AktuellSource: Space-Track

Epoche: Sep 14, 2026, 00:00 UTC

1 04630U 70093A   26257.00062559 -.00000162  00000-0  00000-0 0  9991
2 04630  15.2567  34.5448 1359566 281.4234  47.9784  1.20217156244901

Verfolge OPS 5960 in Echtzeit mit AllMySat

Download on the App Store